Date String (YYYY-MM-DD hh:mm:ss) UTC,Instrument flags,Ambient pressure (hPa),Sample flow (lpm),Bypass flow (lpm),Sample temperature (°C),Ambient temperature (°C),ASC tube jacket temperature (°C),LED temperature (°C),Box temperature (°C),Sample RH (%),Span deviation,Mass concentration (μg/m³),Mass concentration (μg/m³),Mass concentration (μg/m³)
DateTimeUTC,F1_M11,P_M11,Q1_M11,Q2_M11,T1_M11,T2_M11,T3_M11,T4_M11,T5_M11,U1_M11,ZSPAN_M11,X0_M11,X2_M11,X1_M11
2022-11-14 13:00:00,,0825.6,4.99,0.00,22.4,22.1,00.0,31.1,24.4,08.7,0000.0,0009.89,0004.79,0004.28
2022-11-14 13:01:00,,0825.6,5.00,0.00,22.4,21.8,00.0,31.1,24.4,08.8,0001.0,0009.79,0004.75,0004.27
2022-11-14 13:02:00,,0825.7,5.01,0.00,22.4,21.5,00.0,31.1,24.3,08.8,0000.6,0009.96,0004.72,0004.27
2022-11-14 13:03:00,,0825.6,5.00,0.00,22.4,21.3,00.0,31.2,24.2,09.0,0000.7,0010.03,0004.73,0004.28
2022-11-14 13:04:00,,0825.6,4.99,0.00,22.4,21.1,00.0,31.2,24.2,09.1,0003.7,0010.33,0004.74,0004.28
2022-11-14 13:05:00,,0825.6,5.00,0.00,22.3,20.9,00.0,31.2,24.2,09.2,0001.1,0010.56,0004.72,0004.28
2022-11-14 13:06:00,,0825.6,5.00,0.00,22.3,20.8,00.0,31.2,24.1,09.3,0000.0,0010.68,0004.76,0004.28
2022-11-14 13:07:00,,0825.6,5.00,0.00,22.3,20.7,00.0,31.1,24.1,09.4,0000.0,0011.02,0004.75,0004.30
2022-11-14 13:08:00,,0825.6,5.01,0.00,22.3,20.7,00.0,31.1,24.1,09.4,0000.0,0011.12,0004.73,0004.30
2022-11-14 13:09:00,,0825.6,5.01,0.00,22.2,20.6,00.0,31.1,24.1,09.5,0000.0,0010.57,0004.69,0004.29
2022-11-14 13:10:00,,0825.6,5.00,0.00,22.2,20.9,00.0,31.1,24.1,09.5,0000.0,0009.85,0004.67,0004.28
2022-11-14 13:11:00,,0825.6,5.00,0.00,22.3,21.8,00.0,31.1,24.3,09.5,0000.0,0009.74,0004.66,0004.26
2022-11-14 13:12:00,,0825.7,4.99,0.00,22.4,22.4,00.0,31.1,24.5,09.5,0000.0,0009.78,0004.68,0004.25
2022-11-14 13:13:00,,0825.7,4.99,0.00,22.5,22.2,00.0,31.2,24.5,09.5,0000.0,0009.63,0004.71,0004.25
2022-11-14 13:14:00,,0825.7,5.00,0.00,22.5,21.9,00.0,31.2,24.4,09.6,0000.0,0009.47,0004.70,0004.24
2022-11-14 13:15:00,,0825.7,5.01,0.00,22.5,21.6,00.0,31.2,24.4,09.6,0000.0,0009.13,0004.69,0004.24
2022-11-14 13:16:00,,0825.7,4.98,0.00,22.4,21.4,00.0,31.2,24.3,09.6,0000.0,0009.20,0004.72,0004.23
2022-11-14 13:17:00,,0825.7,5.01,0.00,22.4,21.2,00.0,31.2,24.3,09.7,0000.0,0009.38,0004.75,0004.23
2022-11-14 13:18:00,,0825.7,5.00,0.00,22.4,21.1,00.0,31.2,24.2,09.7,0000.0,0009.16,0004.78,0004.22
2022-11-14 13:19:00,,0825.7,4.99,0.00,22.4,21.1,00.0,31.2,24.2,09.7,0000.0,0009.15,0004.84,0004.22
2022-11-14 13:20:00,,0825.7,5.00,0.00,22.4,21.0,00.0,31.2,24.2,09.8,0000.0,0010.04,0004.89,0004.22
2022-11-14 13:21:00,,0825.7,5.00,0.00,22.4,21.0,00.0,31.2,24.2,09.7,0000.0,0009.82,0004.93,0004.23
2022-11-14 13:22:00,,0825.7,5.01,0.00,22.4,20.9,00.0,31.2,24.2,09.6,0000.0,0009.86,0004.94,0004.24
2022-11-14 13:23:00,,0825.7,5.01,0.00,22.3,21.0,00.0,31.2,24.2,09.5,0000.0,0010.15,0005.06,0004.26
2022-11-14 13:24:00,,0825.9,5.00,0.00,22.4,21.7,00.0,31.2,24.3,09.5,0000.0,0010.41,0005.14,0004.28
2022-11-14 13:25:00,,0825.9,4.99,0.00,22.5,22.5,00.0,31.2,24.5,09.4,0000.0,0010.68,0005.19,0004.29
2022-11-14 13:26:00,,0825.9,4.99,0.00,22.6,22.4,00.0,31.2,24.6,09.4,0000.0,0011.70,0005.37,0004.31
2022-11-14 13:27:00,,0825.9,5.00,0.00,22.6,22.1,00.0,31.2,24.6,09.4,0000.0,0013.57,0005.55,0004.32
2022-11-14 13:28:00,,0825.8,5.00,0.00,22.6,21.8,00.0,31.3,24.5,09.4,0000.0,0015.60,0005.75,0004.34
2022-11-14 13:29:00,,0825.8,5.00,0.00,22.6,21.6,00.0,31.3,24.5,09.4,0000.0,0017.41,0005.93,0004.35
2022-11-14 13:30:00,,0825.7,5.00,0.00,22.6,21.4,00.0,31.3,24.4,09.4,0000.0,0020.68,0006.11,0004.37
2022-11-14 13:31:00,,0825.7,4.99,0.00,22.5,21.3,00.0,31.3,24.4,09.5,0000.0,0022.19,0006.30,0004.38
2022-11-14 13:32:00,,0825.7,4.99,0.00,22.5,21.2,00.0,31.3,24.4,09.5,0000.0,0024.48,0006.47,0004.39
2022-11-14 13:33:00,,0825.7,4.99,0.00,22.5,21.2,00.0,31.3,24.3,09.5,0000.0,0026.58,0006.70,0004.39
2022-11-14 13:34:00,,0825.7,5.00,0.00,22.5,21.2,00.0,31.3,24.3,09.4,0000.0,0027.01,0006.81,0004.38
2022-11-14 13:35:00,,0825.7,5.00,0.00,22.5,21.1,00.0,31.3,24.3,09.4,0000.0,0027.78,0006.80,0004.35
2022-11-14 13:36:00,,0825.7,5.00,0.00,22.5,21.1,00.0,31.3,24.3,09.4,0000.0,0029.05,0006.85,0004.35
2022-11-14 13:37:00,,0825.8,4.99,0.00,22.4,21.1,00.0,31.3,24.2,09.4,0000.0,0029.38,0006.81,0004.33
2022-11-14 13:38:00,,0825.8,5.01,0.00,22.4,21.1,00.0,31.3,24.3,09.4,0000.0,0029.02,0006.72,0004.31
2022-11-14 13:39:00,,0825.8,5.02,0.00,22.5,21.8,00.0,31.3,24.4,09.4,0000.0,0027.63,0006.56,0004.29
2022-11-14 13:40:00,,0826.3,4.99,0.00,22.6,22.5,00.0,31.3,24.6,09.4,0000.0,0026.16,0006.39,0004.28
2022-11-14 13:41:00,,0826.0,5.00,0.00,22.6,22.4,00.0,31.3,24.7,09.3,0000.0,0023.71,0006.24,0004.27
2022-11-14 13:42:00,,0826.0,5.00,0.00,22.7,22.1,00.0,31.3,24.6,09.3,0000.0,0022.28,0006.06,0004.25
2022-11-14 13:43:00,,0825.7,5.00,0.00,22.6,21.8,00.0,31.4,24.6,09.3,0000.0,0021.05,0005.97,0004.22
2022-11-14 13:44:00,,0825.8,5.00,0.00,22.6,21.6,00.0,31.4,24.5,09.3,0000.0,0019.57,0005.80,0004.19
2022-11-14 13:45:00,,0825.8,5.01,0.00,22.6,21.5,00.0,31.4,24.5,09.3,0000.0,0021.02,0005.66,0004.20
2022-11-14 13:46:00,,0825.8,4.99,0.00,22.6,21.4,00.0,31.4,24.4,09.4,0000.0,0021.19,0005.66,0004.21
2022-11-14 13:47:00,,0825.8,5.00,0.00,22.6,21.3,00.0,31.4,24.4,09.4,0000.0,0019.97,0005.60,0004.20
2022-11-14 13:48:00,,0825.8,5.01,0.00,22.6,21.3,00.0,31.4,24.4,09.4,0000.0,0019.19,0005.52,0004.20
2022-11-14 13:49:00,,0825.8,5.01,0.00,22.6,21.3,00.0,31.4,24.4,09.4,0000.0,0017.62,0005.42,0004.19
2022-11-14 13:50:00,,0825.9,5.01,0.00,22.5,21.2,00.0,31.4,24.3,09.4,0000.0,0017.13,0005.37,0004.18
2022-11-14 13:51:00,,0825.9,4.99,0.00,22.5,21.2,00.0,31.4,24.3,09.4,0000.0,0017.19,0005.32,0004.15
2022-11-14 13:52:00,,0825.9,4.99,0.00,22.5,21.2,00.0,31.4,24.3,09.4,0000.0,0016.51,0005.27,0004.13
2022-11-14 13:53:00,,0826.0,5.01,0.00,22.5,21.1,00.0,31.4,24.3,09.4,0000.0,0016.09,0005.23,0004.12
2022-11-14 13:54:00,,0826.0,5.01,0.00,22.5,21.5,00.0,31.4,24.4,09.4,0000.0,0015.10,0005.18,0004.12
2022-11-14 13:55:00,,0826.0,4.99,0.00,22.6,22.4,00.0,31.3,24.6,09.4,0000.0,0014.73,0005.14,0004.12
2022-11-14 13:56:00,,0826.0,4.99,0.00,22.7,22.7,00.0,31.4,24.7,09.3,0000.0,0013.20,0005.07,0004.10
2022-11-14 13:57:00,,0826.0,5.00,0.00,22.7,22.3,00.0,31.4,24.7,09.3,0000.0,0012.08,0004.98,0004.10
2022-11-14 13:58:00,,0826.0,5.01,0.00,22.7,22.0,00.0,31.4,24.7,09.4,0000.0,0012.12,0004.92,0004.09
2022-11-14 13:59:00,,0826.0,4.98,0.00,22.7,21.8,00.0,31.4,24.6,09.4,0000.0,0011.98,0004.96,0004.08
